Haines, AK

7:59 AM AKST on February 27, 2017 (GMT -0900)
Haines

Weather History for PAHN - October, 2014

Change the Weather History Date:

Sunday, October 12, 2014

  Actual Average Record
Temperature  
Mean Temperature 49 °F -  
Max Temperature 52 °F 45 °F 56 °F (1991)
Min Temperature 46 °F 37 °F 24 °F (1997)
Degree Days  
Heating Degree Days 16    
Moisture  
Dew Point 46 °F    
Average Humidity 91    
Maximum Humidity 100    
Minimum Humidity 76    
Precipitation  
Precipitation 0.28 in - - ()
Sea Level Pressure  
Sea Level Pressure 29.62 in    
Wind  
Wind Speed 9 mph (East)    
Max Wind Speed 15 mph    
Max Gust Speed 24 mph    
Visibility 9 miles    
Events Rain    
Averages and records for this station are not official NWS values.
T = Trace of Precipitation, MM = Missing Value Source: NWS Daily Summary

Daily Weather History Graph

Daily Weather History Graph

Search for Another Location

Airport or City:

Trip Planner

Search our weather history database for the weather conditions in past years. The results will help you decide how hot, cold, wet, or windy it might be!

Date:

Astronomy

Oct. 12, 2014 Rise Set
Actual Time 7:33 AM AKDT 6:02 PM AKDT
Civil Twilight 6:52 AM AKDT 6:43 PM AKDT
Nautical Twilight 6:05 AM AKDT 7:30 PM AKDT
Astronomical Twilight 5:17 AM AKDT 8:18 PM AKDT
Moon 8:37 PM AKDT (10/12) 12:51 PM AKDT (10/12)
Length of Visible Light 11h 51m
Length of Day
10h 29m
Waning Gibbous, 78% of the Moon is Illuminated
Oct 12
Waning Gibbous
Oct 15
Last Quarter
Oct 23
New
Oct 30
First Quarter
Nov 6
Full

Hourly Weather History & Observations

Time (AKDT) Temp. Windchill Dew Point Humidity Pressure Visibility Wind Dir Wind Speed Gust Speed Precip Events Conditions
12:31 AM 48.0 °F - 45.0 °F 89% 29.71 in 10.0 mi East 12.7 mph - 0.01 in Rain Light Rain
12:45 AM 48.0 °F - 46.0 °F 93% 29.70 in 10.0 mi East 9.2 mph 19.6 mph 0.01 in Rain Light Rain
12:54 AM 48.0 °F - 46.0 °F 93% 29.71 in 10.0 mi East 10.4 mph 19.6 mph 0.01 in Rain Light Rain
1:14 AM 48.9 °F - 46.0 °F 90% 29.71 in 10.0 mi East 10.4 mph - 0.00 in Rain Light Rain
1:54 AM 48.9 °F - 46.0 °F 90% 29.72 in 10.0 mi ENE 8.1 mph - 0.00 in   Overcast
2:54 AM 48.9 °F - 45.0 °F 86% 29.71 in 10.0 mi East 10.4 mph 21.9 mph N/A   Overcast
3:02 AM 48.9 °F - 45.0 °F 86% 29.70 in 10.0 mi East 10.4 mph 21.9 mph 0.00 in Rain Light Rain
3:14 AM 48.9 °F - 46.0 °F 90% 29.71 in 10.0 mi East 12.7 mph 19.6 mph 0.00 in Rain Light Rain
3:54 AM 48.9 °F - 46.0 °F 90% 29.71 in 10.0 mi East 10.4 mph 19.6 mph 0.01 in Rain Light Rain
4:04 AM 48.9 °F - 46.0 °F 90% 29.70 in 10.0 mi East 11.5 mph 24.2 mph 0.00 in Rain Light Rain
4:40 AM 48.9 °F - 46.0 °F 90% 29.70 in 10.0 mi ENE 15.0 mph 19.6 mph 0.00 in   Overcast
4:54 AM 48.9 °F - 46.0 °F 90% 29.70 in 10.0 mi East 11.5 mph 20.7 mph 0.00 in   Overcast
5:54 AM 48.9 °F - 46.0 °F 90% 29.70 in 10.0 mi East 12.7 mph 20.7 mph 0.00 in   Overcast
6:54 AM 48.9 °F - 46.0 °F 90% 29.69 in 10.0 mi East 8.1 mph - N/A   Overcast
7:07 AM 48.9 °F - 46.0 °F 90% 29.68 in 10.0 mi East 12.7 mph 19.6 mph N/A   Overcast
7:40 AM 50.0 °F - 46.0 °F 86% 29.68 in 10.0 mi East 10.4 mph 17.3 mph N/A   Overcast
7:54 AM 48.9 °F - 46.0 °F 90% 29.70 in 10.0 mi East 9.2 mph 18.4 mph N/A   Overcast
8:29 AM 50.0 °F - 46.0 °F 86% 29.68 in 10.0 mi East 10.4 mph 19.6 mph N/A   Overcast
8:37 AM 50.0 °F - 46.0 °F 86% 29.68 in 10.0 mi ENE 9.2 mph 17.3 mph N/A   Overcast
8:54 AM 50.0 °F - 46.0 °F 86% 29.69 in 10.0 mi ENE 10.4 mph 23.0 mph N/A   Overcast
9:28 AM 51.1 °F - 46.0 °F 83% 29.68 in 10.0 mi East 8.1 mph - 0.00 in Rain Light Rain
9:52 AM 51.8 °F - 44.6 °F 76% 29.67 in 10.0 mi East 9.2 mph 18.4 mph 0.00 in   Mostly Cloudy
9:54 AM 51.1 °F - 45.0 °F 80% 29.68 in 10.0 mi East 6.9 mph - 0.00 in   Mostly Cloudy
10:54 AM 52.0 °F - 45.0 °F 77% 29.67 in 10.0 mi East 6.9 mph - N/A   Overcast
11:54 AM 48.9 °F - 46.0 °F 90% 29.67 in 9.0 mi East 9.2 mph - 0.01 in Rain Light Rain
12:54 PM 50.0 °F - 48.0 °F 93% 29.65 in 10.0 mi East 3.5 mph - 0.01 in Rain Light Rain
1:54 PM 48.0 °F - 46.9 °F 96% 29.62 in 6.0 mi ESE 5.8 mph - 0.03 in Rain Rain
2:54 PM 48.0 °F - 46.0 °F 93% 29.58 in 10.0 mi Calm Calm - 0.01 in Rain Light Rain
3:54 PM 50.0 °F - 46.9 °F 89% 29.54 in 10.0 mi Calm Calm - 0.00 in   Overcast
4:54 PM 48.9 °F - 46.0 °F 90% 29.52 in 10.0 mi WNW 10.4 mph - N/A   Overcast
5:54 PM 48.9 °F - 46.0 °F 90% 29.51 in 10.0 mi NW 10.4 mph - 0.00 in Rain Light Rain
6:54 PM 48.0 °F - 46.0 °F 93% 29.51 in 10.0 mi WNW 9.2 mph - 0.02 in Rain Light Rain
7:54 PM 48.0 °F - 46.0 °F 93% 29.51 in 10.0 mi ESE 4.6 mph - 0.03 in Rain Light Rain
8:16 PM 48.0 °F - 46.9 °F 96% 29.51 in 9.0 mi Calm Calm - 0.01 in Rain Light Rain
8:19 PM 46.9 °F - 46.0 °F 97% 29.51 in 9.0 mi Variable 3.5 mph - 0.01 in Rain Rain
8:33 PM 46.9 °F - 46.0 °F 97% 29.52 in 7.0 mi Variable 4.6 mph - 0.03 in Rain Rain
8:40 PM 46.9 °F - 46.0 °F 97% 29.52 in 6.0 mi East 4.6 mph - 0.04 in Rain Rain
8:47 PM 46.9 °F - 45.0 °F 93% 29.52 in 7.0 mi East 3.5 mph - 0.04 in Rain Light Rain
8:54 PM 46.9 °F - 46.0 °F 97% 29.53 in 9.0 mi ENE 4.6 mph - 0.05 in Rain Light Rain
9:27 PM 48.0 °F - 46.0 °F 93% 29.52 in 10.0 mi East 3.5 mph - 0.01 in Rain Light Rain
9:39 PM 48.0 °F - 46.0 °F 93% 29.52 in 7.0 mi ENE 3.5 mph - 0.02 in Rain Rain
9:49 PM 46.4 °F 45.2 °F 46.4 °F 100% 29.52 in 8.0 mi ESE 3.5 mph - 0.03 in Rain Light Rain
9:54 PM 46.9 °F - 46.0 °F 97% 29.53 in 10.0 mi East 4.6 mph - 0.03 in Rain Light Rain
10:54 PM 46.9 °F - 46.0 °F 97% 29.53 in 9.0 mi East 5.8 mph - 0.01 in Rain Light Rain
11:11 PM 46.9 °F - 46.0 °F 97% 29.53 in 7.0 mi ESE 6.9 mph - 0.02 in Rain Light Rain
11:54 PM 46.9 °F - 46.0 °F 97% 29.55 in 7.0 mi ESE 4.6 mph - 0.06 in Rain Light Rain